Home > Weather > Oruro > Past weeks

Flag for Bolivia Weather for the Past 2 Weeks in Oruro, Bolivia

Now
57 °F

Passing clouds.


Feels Like: 57 °F
Forecast: 44 / 68 °F
Wind: No wind

Location: Cochabamba Airport

Current Time: Feb 13, 2016 at 5:02:16 AM

Latest Report: Feb 13, 2016 at 4:00 AM


Visibility: N/A

Pressure: 30.18 "Hg (19.38 "Hg at 3722m altitude)

Humidity: 88%

Dew point: 54 °F

Location of OruroLocation

Historic Weather in Oruro — Graph

°F

Oruro Temperature Yesterday

Maximum temperature yesterday: 73 °F (at 2:00 PM)
Minimum temperature yesterday: 61 °F (at 7:00 AM)
Average temperature yesterday: 68 °F

High & Low Weather Summary for the Past Weeks

 TemperatureHumidityPressure
High84 °F (Jan 29, 4:00 PM)100% (Feb 1, 5:00 AM)30.63 "Hg (Feb 1, 5:00 AM)
Low54 °F (Feb 3, 1:00 AM)20% (Jan 29, 4:00 PM)30.07 "Hg (Jan 29, 5:00 PM)
Average66 °F63%30.27 "Hg
* Reported Jan 29 3:00 AM — Feb 13 3:00 AM, Oruro, Weather by CustomWeather, © 2016

Note: Actual official high and low records may vary slightly from our data, if they occured in-between our weather recording intervals... More about our weather records

Advertising

Oruro Weather History for the Previous 24 Hours

 ConditionsComfort  
Time TempWeatherWind HumidityBarometerVisibility
3:00 AM
Sat, Feb 13
57 °FPassing clouds.No wind88%30.18 "HgN/A
2:00 AM59 °FPassing clouds.No wind82%30.18 "HgN/A
1:00 AM61 °FPassing clouds.No wind77%30.21 "HgN/A
12:00 AM61 °FPassing clouds.No wind77%30.21 "HgN/A
11:00 PM
Fri, Feb 12
63 °FPassing clouds.No wind73%30.21 "HgN/A
10:00 PM64 °FPassing clouds.No wind73%30.21 "HgN/A
9:00 PM66 °FPassing clouds.No wind64%30.18 "HgN/A
8:00 PM66 °FPassing clouds.No wind64%30.18 "HgN/A
7:00 PM70 °FPassing clouds.No wind57%30.15 "HgN/A
6:00 PM72 °FBroken clouds.No wind53%30.15 "HgN/A
5:00 PM73 °FBroken clouds.5 mph53%30.15 "HgN/A
4:00 PM73 °FBroken clouds.3 mph53%30.18 "HgN/A
3:00 PM73 °FBroken clouds.3 mph50%30.21 "HgN/A
2:00 PM73 °FBroken clouds.No wind50%30.24 "HgN/A
1:00 PM72 °FBroken clouds.5 mph53%30.27 "HgN/A
12:00 PM70 °FBroken clouds.No wind60%30.30 "HgN/A
11:00 AM70 °FBroken clouds.No wind60%30.33 "HgN/A
10:00 AM68 °FBroken clouds.No wind64%30.36 "HgN/A
9:00 AM66 °FPartly sunny.No wind68%30.36 "Hg6 mi
8:00 AM63 °FBroken clouds.6 mph83%30.30 "HgN/A
7:00 AM61 °FBroken clouds.No wind88%30.27 "HgN/A
6:00 AM64 °FPartly cloudy.No wind73%30.27 "HgN/A
5:00 AM63 °FPartly cloudy.No wind83%30.24 "HgN/A
Weather by CustomWeather, © 2016

See weather overviewHow to use our weather pages